Reflectivity
-20 -20 -20 -20 -20 -20 -20 -20 -20 -20 -20 -14 -12 1 -8 -20 -20 -20 -20 -20 -20 -20 -20 -20 -20 -20 -20 -20 -20 -20 -20 -20 -20 -20 -20 -20 -20 -20 -20 -20 -11 -13 -15 -7
-20 -20 -20 -20 -20 -20 -20 -20 -13 -20 16 2 -19 -0 -17 -20 -20 -20 -20 -20 -20 -20 -20 -20 -20 -20 -20 -20 -20 -20 -20 -20 -20 -20 -20 -20 -20 -20 -13 5 -11 -20 -20 -20
-20 -20 -20 -20 -20 -20 -20 -6 -15 -20 -20 -20 -20 -20 -20 -20 -20 -20 -20 -20 -20 -20 -20 -20 -20 -20 -20 -20 -20 -20 -20 -20 -20 -20 -20 -15 0 6 -1 -20 -16 -13 -20 -20
-20 -20 -20 -20 -20 -20 -20 -20 -20 -20 -20 -20 -20 -20 -20 -20 -20 -20 -20 -20 -20 -20 -20 -20 -20 -20 -20 -20 -20 -20 -20 -17 -13 -1 -13 -6 12 0 -16 -20 -20 -20 -20 -20
-20 -20 -20 -20 -20 -20 -20 -20 -20 -20 -20 -20 -20 -20 -20 -20 -20 -20 -20 -20 -20 -20 -20 -20 -20 -20 -20 -20 -20 -20 -20 -6 -17 11 -15 -7 -20 -20 -20 -20 -20 -20 -20 -20
-20 -20 -20 -20 -20 -20 -20 -18 -20 -20 -20 -20 -20 -20 -20 -20 -20 -20 -20 -20 -20 -20 -20 -20 -20 -20 -20 -20 -20 -20 -20 -9 8 -7 9 5 1 -20 -20 -20 -20 -20 -20 -20
-20 -20 -20 -20 -20 -20 -11 -20 -20 -20 -20 -20 -20 -20 -20 -20 -20 -20 -20 -20 -20 -20 -20 -20 -20 -20 -20 -20 -20 -20 -20 -18 6 1 7 3 -6 -20 -20 -20 -20 -20 -20 -20
-20 -20 -20 -20 -20 -16 -18 -20 -20 -20 -20 -20 -20 -20 5 -20 -17 -20 -18 -20 -20 -20 -20 -20 -20 -17 -1 -14 -20 -20 -20 -9 4 8 5 -20 -20 -20 -20 -20 -20 -20 -20 -20
-20 -20 -20 -20 -20 -20 -20 -20 -20 -20 -20 -20 -20 -20 12 20 28 2 -20 -20 -20 -20 -20 -20 -20 -20 -18 -20 -20 -20 -5 8 7 -16 -20 -20 -20 -20 -20 -20 -20 -20 -20 -20
-20 -20 -20 -20 -20 -20 -20 -20 -20 -20 -20 -20 -16 -15 -11 13 -16 -20 -20 -20 -20 -20 -20 -20 -20 -20 -14 -19 -20 -20 -20 -13 -17 -17 -20 -20 -20 -20 -20 -20 -20 -20 -20 -20
-20 -20 -20 -20 -20 -20 -20 -20 -20 -20 -20 -20 -20 -20 -20 -20 -20 -20 -20 -20 -20 -20 -20 -20 -20 -20 -20 -11 -19 -20 -3 -9 -20 -20 -20 -20 -20 -20 -20 -20 -20 -20 -20 -20
-20 -20 -20 -20 -20 -20 -20 -20 -20 -20 -20 -20 -20 -20 -20 -20 -20 -20 -20 -20 -20 -20 -20 -20 -20 -20 -20 -17 -17 -20 -20 -20 -19 -20 -20 -20 -20 -20 -20 -20 -20 -20 -20 -20
-20 -20 -20 -20 -20 -20 -20 -20 -20 -20 -20 -20 -20 -20 -20 -20 -20 -20 -20 -20 -20 -20 -20 -20 -20 -20 -20 -20 -20 -20 -20 -20 -20 -20 -20 -20 -20 -20 -20 -20 -20 -20 -20 -20
-20 -20 -20 -20 -20 -20 -20 -20 -20 -20 -20 -20 -20 -20 -20 -20 -20 -20 -20 -20 -20 -20 -20 -20 -20 -20 -20 -20 -20 -20 -20 -20 -20 -20 -20 -20 -20 -20 -20 -20 -20 -20 -20 -20
-20 -20 -20 -20 -20 -20 -20 -20 -20 -20 -20 -20 -20 -20 -20 -20 -20 -20 -20 -20 -20 -20 -20 -20 -20 -20 -20 -20 -20 -20 -20 -20 -20 -20 -20 -20 -20 -20 -20 -20 -20 -20 -20 -20
-20 -20 -20 -20 -20 -20 -20 -20 -20 -20 -20 -20 -20 -20 -20 -20 -20 -20 -20 -20 -20 -20 -20 -20 -20 -20 -20 -20 -20 -20 -20 -20 -20 -20 -20 -20 -20 -20 -20 -20 -20 -20 -20 -20
-20 -20 -20 -20 -20 -20 -20 -20 -20 -20 -20 -20 -20 -20 -20 -20 -20 -20 -20 -20 -20 -20 -20 5 11 -18 -20 -20 -20 -20 -20 -20 -20 -20 -20 -20 -20 -20 -20 -20 -20 -20 -20 -20
-20 -20 -20 -20 -20 -20 -20 -20 -20 -20 -20 -20 -20 -20 -20 -20 -20 -20 -20 -20 -20 -20 -20 -15 -0 -5 -17 -1 14 7 -18 -20 -20 -20 -20 -20 -20 -20 -20 -20 -20 -20 -20 -20
-20 -20 -20 -20 -20 -20 -20 -20 -20 -20 -20 -20 -20 -20 -20 -20 -20 -20 -20 -20 -20 -20 6 8 -18 -20 -20 -20 8 12 14 -13 -19 -20 -20 -20 -20 -20 -20 -20 -20 -20 -20 -20
-20 -20 -20 -20 -20 -20 -20 -18 -20 -20 -20 -15 -9 -6 -20 -20 -20 -20 -20 -20 -20 -20 -20 -17 6 12 11 -5 10 -0 7 16 -1 1 -7 -20 -20 -20 -20 -20 -20 -20 -20 -20
-8 -20 -10 -20 -9 -4 -4 -10 -20 -20 -19 -17 -20 -1 -5 -6 -20 -20 -20 -20 -20 -20 -20 2 -1 -17 -20 8 27 10 -3 -2 19 3 11 15 10 1 -4 -20 -20 -20 -20 -20
1 -19 -20 -20 -20 -20 -20 -20 -20 -20 -20 -20 -20 -20 -6 -5 6 7 4 -13 -10 16 4 -17 -16 4 7 22 16 4 -2 -11 13 15 15 17 15 13 13 -1 7 -8 -20 -20
-20 -20 -20 -20 -20 -20 -20 -20 -20 -20 -20 -20 -20 -20 -20 -19 -19 -20 -20 2 12 16 20 9 21 21 17 16 9 1 4 12 14 14 16 16 13 15 18 13 9 -9 -20 -20
-20 -20 -20 -20 -20 -20 -20 -20 -20 -20 -20 -20 -20 -20 -20 -20 -20 -18 -19 -7 -2 -3 3 19 21 20 23 17 14 22 25 17 16 14 16 18 18 17 15 13 11 6 -9 -20
-20 -20 -20 -20 -20 -20 -20 -20 -20 -20 -20 -20 -20 -20 -20 -20 -20 -20 -5 6 4 -1 9 22 23 27 22 20 17 14 12 12 12 13 13 14 13 15 13 14 11 10 -2 -18
-20 -20 -20 -20 -20 -20 -20 -20 -20 -20 -20 -20 -20 -20 -20 -20 -20 -20 -20 -19 3 14 19 17 14 23 15 13 13 5 -5 0 10 8 -3 -0 4 8 8 10 9 4 -0 -20
-20 -20 -20 -20 -20 -20 -20 -20 -20 -20 -20 -20 -20 -20 -20 -20 -20 -20 -20 -20 -19 -5 14 8 -4 -9 -1 5 9 7 -9 -20 -20 -13 -5 2 4 -0 6 10 7 -8 -20 -20
Wind_Speed
6 5 6 12 14 9 4 4 5 3 7 9 10 9 8 9 6 7 7 9 9 8 7 6 6 6 6 6 5 5 5 5 5 5 6 6 7 7 8 8 8 8 9 8
6 6 6 6 9 10 6 2 5 1 2 6 9 7 6 7 8 9 9 10 10 10 8 8 7 6 6 6 5 5 5 5 5 5 6 7 7 8 8 9 9 9 9 9
1 4 6 4 5 7 4 6 5 4 5 5 6 7 6 7 5 7 8 11 12 11 8 7 7 7 7 6 5 5 5 5 5 5 6 6 7 8 8 9 9 9 9 8
3 3 1 4 1 4 6 4 4 3 5 5 5 4 5 4 3 4 7 10 10 8 7 6 6 8 9 7 5 5 5 5 5 6 6 6 7 8 8 8 7 7 7 7
4 2 2 0 3 5 5 5 5 6 5 5 3 4 3 4 2 3 4 6 7 8 8 7 7 9 9 8 6 6 6 6 5 6 7 6 6 7 8 8 7 6 5 6
2 3 2 2 2 2 3 2 4 7 5 4 2 2 3 4 4 6 6 6 9 8 7 6 6 9 9 7 6 5 6 6 6 6 7 7 7 8 8 8 7 5 5 6
1 2 2 2 2 2 3 3 5 7 6 4 3 3 2 6 4 4 5 7 6 7 6 5 4 7 8 8 6 5 6 7 7 7 8 7 7 7 6 6 5 5 5 5
1 2 1 3 3 2 2 2 5 4 4 4 4 4 4 5 6 7 7 6 6 6 5 4 4 8 8 7 7 7 7 7 8 8 7 7 9 6 6 6 6 5 5 4
4 4 3 1 4 2 2 3 2 3 3 5 5 5 5 6 7 6 7 6 5 6 6 4 4 6 8 7 8 8 8 8 8 8 8 7 7 5 4 5 4 4 4 4
3 1 4 4 4 4 4 4 4 3 3 3 2 4 5 6 6 6 7 7 6 6 6 5 5 6 7 8 8 9 9 9 8 8 9 7 4 4 4 4 4 4 4 4
2 3 7 4 4 3 5 6 6 5 2 2 2 1 5 5 7 6 8 8 7 7 6 6 6 7 8 9 9 9 9 8 8 7 5 4 3 4 4 3 5 5 4 4
3 2 3 3 2 3 6 4 4 4 3 3 1 1 2 5 6 7 7 7 7 7 7 7 7 8 9 10 9 10 9 7 5 5 5 4 5 4 5 5 7 7 9 6
5 2 5 6 5 2 4 4 3 2 2 1 3 2 3 1 5 8 6 7 8 9 8 8 8 9 10 10 11 10 8 6 5 6 5 5 4 4 5 4 7 7 7 8
4 6 3 1 3 2 3 3 4 3 3 1 1 1 2 1 4 6 7 7 7 8 10 9 9 9 10 11 11 8 6 12 5 5 5 5 5 4 4 4 4 2 4 5
5 5 5 2 2 4 3 3 4 4 4 5 4 3 2 3 4 7 6 7 6 8 9 10 10 10 10 10 9 9 7 5 6 5 5 6 5 4 4 4 4 3 2 5
2 3 2 4 4 3 3 4 3 4 4 4 4 5 6 5 5 5 6 7 8 9 11 11 11 10 10 9 7 6 7 12 9 5 5 5 5 5 4 5 4 4 4 4
2 3 2 1 3 2 3 2 2 3 4 5 5 6 6 5 5 5 6 8 9 8 11 12 11 10 12 11 10 6 6 6 12 5 6 6 5 6 5 4 4 4 5 5
3 1 1 1 2 3 3 4 3 5 4 5 6 6 6 5 6 7 6 7 5 5 7 9 9 10 12 12 10 7 6 6 7 7 6 6 6 5 5 5 4 5 4 4
6 5 4 4 4 4 4 4 5 6 6 5 6 6 6 5 6 6 4 6 6 6 6 6 11 12 12 13 11 7 8 8 7 6 7 9 7 6 5 5 5 5 4 4
6 6 6 6 6 5 5 5 6 6 6 7 6 5 5 5 5 4 3 5 5 4 4 7 8 9 10 12 18 8 9 10 9 8 7 7 7 6 6 9 7 5 5 5
5 5 6 6 5 4 4 5 6 7 7 7 6 6 5 6 5 4 2 3 3 5 5 8 8 7 6 10 13 9 9 9 9 9 8 8 7 6 6 6 6 6 6 5
1 2 4 4 4 4 3 4 5 5 6 6 6 6 6 5 5 4 3 4 3 6 3 3 4 8 7 15 8 9 9 9 8 8 8 7 7 6 7 6 7 6 6 5
3 2 3 4 3 2 3 4 5 3 4 4 6 6 6 4 4 4 4 4 3 5 4 3 6 11 15 9 7 9 9 10 9 9 9 8 6 6 6 7 6 6 5 6
2 3 2 4 4 5 6 6 5 4 3 5 4 3 4 5 4 1 3 7 10 7 4 4 6 11 13 6 6 7 8 9 9 8 8 12 7 7 5 6 6 6 6 8
2 2 3 4 4 2 3 4 4 4 5 5 5 5 5 2 1 5 5 5 9 7 4 7 9 11 5 4 5 7 7 7 8 8 8 8 8 9 7 7 7 6 6 6
1 1 1 2 1 2 3 3 3 3 4 5 4 4 5 5 4 4 4 6 4 8 4 4 3 3 3 4 6 6 6 6 7 8 9 8 8 8 7 7 7 7 6 5
1 1 1 3 1 3 3 3 3 4 4 4 5 4 5 5 5 6 8 5 4 4 4 4 3 4 3 4 5 6 6 6 9 7 7 7 7 7 7 7 6 6 5 5
Wind_Direction
36 82 138 164 167 157 134 142 126 281 170 173 156 151 161 170 167 170 179 174 167 158 153 146 132 122 108 98 96 98 88 81 82 80 76 76 72 69 70 70 73 77 81 77
47 41 68 113 158 164 165 171 303 54 120 179 173 158 180 192 193 192 195 180 165 152 152 149 148 142 124 111 106 102 94 93 92 90 88 83 85 81 80 79 80 82 80 83
331 112 75 26 212 172 166 172 169 180 213 124 149 168 187 206 207 209 187 171 159 155 149 149 150 138 126 117 116 107 107 100 98 97 92 90 92 91 86 84 82 80 80 86
149 82 54 249 14 169 176 185 219 110 136 134 136 107 74 33 141 147 153 153 149 144 139 138 133 126 125 119 122 113 109 101 95 91 88 82 86 83 79 78 77 84 82 85
126 123 132 223 244 166 153 215 173 154 130 96 83 84 21 44 44 161 142 118 131 140 139 139 138 136 128 128 127 125 128 119 111 109 101 96 92 97 95 91 82 76 77 77
71 113 155 194 157 69 104 212 216 142 133 100 78 170 251 144 96 78 79 109 127 130 126 131 137 141 135 138 132 131 131 122 109 106 106 112 111 106 100 101 108 100 92 86
353 117 303 167 147 71 148 213 115 122 132 129 143 192 163 127 105 111 116 118 113 120 132 129 117 135 136 136 131 126 121 120 113 113 118 120 116 113 115 118 106 106 100 101
40 80 275 155 91 188 164 95 99 105 156 136 138 145 155 142 140 141 141 138 128 124 128 134 117 121 127 131 134 129 126 126 126 129 129 126 120 120 114 111 114 120 118 109
165 210 215 124 135 123 118 95 51 104 111 134 149 181 177 158 173 166 164 147 137 141 139 132 123 134 137 146 139 136 136 138 139 136 131 133 142 152 141 139 141 149 138 133
70 268 169 101 67 64 71 83 78 82 101 88 129 170 185 166 167 170 170 167 157 151 158 161 145 146 148 150 147 149 151 151 149 147 154 170 156 159 149 163 164 157 157 159
279 77 71 40 74 55 77 61 56 47 57 84 103 159 183 186 176 178 175 170 167 171 170 170 158 155 155 155 160 158 155 156 163 158 136 111 130 167 167 207 172 164 182 167
224 239 149 155 127 61 81 58 49 41 26 6 32 326 216 202 177 177 169 163 168 168 160 162 164 162 161 165 167 164 162 164 163 133 130 133 121 97 119 113 131 155 155 154
176 131 93 124 96 40 81 38 26 21 357 353 347 348 334 226 180 180 169 168 172 173 163 161 170 171 170 171 173 172 163 158 143 145 150 150 151 145 139 106 111 126 140 153
111 121 78 68 156 88 84 30 11 351 346 268 263 340 306 249 172 181 189 185 170 157 163 166 173 178 177 177 177 167 156 167 160 164 164 162 167 167 157 168 168 196 205 171
87 76 115 127 133 90 66 19 18 4 356 350 345 304 296 278 223 214 192 173 164 159 169 173 176 187 186 179 181 170 164 169 164 168 171 178 166 168 177 182 191 189 182 219
86 79 98 107 101 53 28 20 4 329 334 317 327 320 305 280 256 225 189 171 167 188 182 183 190 185 184 178 172 162 170 179 172 167 172 167 172 174 182 194 193 194 201 211
79 122 23 69 45 8 348 359 359 325 317 315 327 317 313 290 281 252 205 196 199 191 184 188 194 179 183 183 182 180 175 176 179 175 179 181 182 190 188 188 197 201 215 208
83 81 2 354 4 349 343 350 338 338 327 322 302 303 302 283 262 264 224 191 185 194 191 192 187 180 186 187 181 169 175 182 179 185 182 185 193 187 190 193 194 203 219 218
47 43 24 26 18 356 336 344 349 329 316 321 319 308 289 279 270 266 216 181 188 205 220 190 186 177 184 188 177 177 178 177 189 187 189 197 202 194 189 188 199 204 201 202
46 41 39 31 28 23 3 359 341 333 343 334 326 324 341 339 326 283 213 216 214 208 188 192 189 195 190 185 181 182 186 187 187 195 187 195 199 196 195 202 202 203 204 211
49 38 39 30 25 28 19 1 353 350 342 348 348 343 327 317 330 331 277 260 270 245 220 207 203 202 190 181 187 186 187 187 193 198 196 198 199 196 196 200 202 203 211 211
59 32 27 25 18 342 17 8 355 347 353 351 348 348 342 343 341 327 288 264 318 316 251 219 215 207 195 191 190 190 189 189 189 192 201 196 192 192 199 200 208 212 212 210
63 35 28 14 356 339 17 3 344 330 332 349 359 354 347 331 325 326 336 357 330 296 278 240 235 228 215 206 199 195 194 192 191 190 195 203 196 192 197 202 209 209 208 212
42 32 25 1 29 31 17 350 340 344 344 339 321 317 343 348 340 31 314 319 327 314 292 258 250 243 229 213 198 201 200 198 196 191 191 191 191 194 197 209 212 210 213 221
27 12 33 29 33 359 326 334 336 349 357 354 348 345 339 291 274 310 316 314 321 322 300 300 277 251 236 209 202 205 204 201 197 191 191 192 191 196 202 214 216 210 208 206
29 359 306 336 354 359 335 338 345 338 351 347 332 332 337 331 325 336 299 315 319 320 307 302 290 268 227 202 203 204 202 202 204 201 196 197 193 191 195 211 209 210 207 197
308 340 19 0 8 358 341 356 355 338 341 324 315 335 329 329 333 346 346 332 326 319 312 305 299 299 279 225 210 205 203 202 204 201 197 195 193 194 197 207 208 200 188 193